Location: Newark
(45.2500°N, 7.5833°E)
Time: 23:10:19
(UTC+00:00)

Courier 1B Rocket - All Passes

Search period start: 19 January 2020 00:00
Search period end: 29 January 2020 00:00
Orbit: 920 x 1202 km, 28.2° (Epoch: 19 January)

Date Brightness Start Highest point End Pass type
(mag) Time Alt. Az. Time Alt. Az. Time Alt. Az.
19 Jan - 13:16:24 10° S 13:18:26 12° SSE 13:20:26 10° SE daylight
19 Jan - 15:06:55 10° SW 15:10:38 16° S 15:14:18 10° SE daylight
19 Jan - 17:00:08 10° SW 17:02:49 13° SSW 17:05:31 10° SSE visible
20 Jan - 14:06:20 10° SSW 14:09:59 16° S 14:13:33 10° SE daylight
20 Jan - 15:58:50 10° SW 16:02:13 15° S 16:05:33 10° SSE daylight
21 Jan - 13:05:57 10° SSW 13:09:19 14° S 13:12:36 10° SE daylight
21 Jan - 14:57:47 10° SW 15:01:34 16° S 15:05:17 10° SSE daylight
21 Jan - 16:52:42 10° SSW 16:53:43 10° SSW 16:54:43 10° S visible
22 Jan - 12:05:56 10° S 12:08:39 13° SSE 12:11:18 10° SE daylight
22 Jan - 13:56:54 10° SW 14:00:55 17° S 14:04:48 10° SE daylight
22 Jan - 15:50:20 10° SW 15:53:07 13° SSW 15:55:52 10° SSE daylight
23 Jan - 11:07:02 10° S 11:07:57 10° SSE 11:08:53 10° SSE daylight
23 Jan - 12:56:11 10° SSW 13:00:13 17° S 13:04:08 10° SE daylight
23 Jan - 14:48:53 10° SW 14:52:29 15° S 14:56:01 10° SSE daylight
24 Jan - 11:55:39 10° SSW 11:59:31 16° S 12:03:15 10° SE daylight
24 Jan - 13:47:43 10° SW 13:51:49 17° S 13:55:48 10° SSE daylight
24 Jan - 15:42:41 10° SSW 15:43:59 11° SSW 15:45:16 10° S daylight
25 Jan - 10:55:25 10° SSW 10:58:47 14° SSE 11:02:04 10° SE daylight
25 Jan - 12:46:43 10° SW 12:51:07 18° S 12:55:21 10° SE daylight
25 Jan - 14:40:17 10° SW 14:43:21 14° SSW 14:46:23 10° SSE daylight
26 Jan - 09:55:49 10° S 09:58:03 11° SSE 10:00:14 10° SE daylight
26 Jan - 11:45:53 10° SW 11:50:23 18° S 11:54:43 10° SE daylight
26 Jan - 13:38:45 10° SW 13:42:42 16° S 13:46:33 10° SSE daylight
27 Jan - 10:45:15 10° SSW 10:49:37 17° S 10:53:50 10° SE daylight
27 Jan - 12:37:29 10° SW 12:42:00 18° S 12:46:20 10° SE daylight
27 Jan - 14:32:18 10° SW 14:34:12 11° SSW 14:36:03 10° S daylight
28 Jan - 09:44:55 10° SSW 09:48:50 15° SSE 09:52:39 10° SE daylight
28 Jan - 11:36:25 10° SW 11:41:15 19° S 11:45:53 10° SE daylight
28 Jan - 13:30:02 10° SW 13:33:33 14° SSW 13:36:58 10° SSE daylight
